EJU85DP LEIB-LFSB

Flight info

Callsign EJU85DP
Flight time N/A
Altitude 32000
Route KABRE DCT ELTAN DCT MHN DCT MEROS DCT LAPIT DCT CHELY DCT LUMAS DCT MAXIR DCT LUSOL DCT BODRU DCT OKTET DCT IRMAR DCT KINES DCT VANAS DCT MOBLO DCT LAMUR DCT KORED N871 KONOL Z59 LUMEL
Aircraft A20N/M-SDE2E3FGHIRWXY/LB1

Departure

Time N/A
Airport Ibiza Airport (LEIB)

Arrival

Time 2026-05-06 15:42
Airport EuroAirport Basel–Mulhouse–Freiburg (LFSB)
Time Latitude Longitude Altitude Speed Heading
2026-05-06 15:38 47.73011 7.43183 3300 ft 169 kts 158°
2026-05-06 15:38 47.71959 7.43917 3101 ft 162 kts 158°
2026-05-06 15:39 47.70967 7.44605 2861 ft 151 kts 158°
2026-05-06 15:39 47.70052 7.45239 2644 ft 144 kts 158°
2026-05-06 15:39 47.69143 7.45868 2461 ft 144 kts 157°
2026-05-06 15:39 47.68234 7.46499 2274 ft 143 kts 157°
2026-05-06 15:40 47.67337 7.47123 2086 ft 143 kts 156°
2026-05-06 15:40 47.66438 7.47747 1892 ft 142 kts 156°
2026-05-06 15:40 47.65550 7.48364 1697 ft 142 kts 156°
2026-05-06 15:40 47.64661 7.48982 1503 ft 141 kts 155°
2026-05-06 15:41 47.63772 7.49600 1311 ft 141 kts 155°
2026-05-06 15:41 47.62889 7.50213 1122 ft 140 kts 155°
2026-05-06 15:41 47.62014 7.50820 943 ft 140 kts 156°
2026-05-06 15:41 47.61138 7.51415 855 ft 132 kts 154°
2026-05-06 15:42 47.60454 7.51901 861 ft 83 kts 154°
2026-05-06 15:42 47.60046 7.52186 863 ft 56 kts 155°
2026-05-06 15:42 47.59831 7.52352 867 ft 18 kts 117°
2026-05-06 15:42 47.59855 7.52474 867 ft 7 kts 67°
2026-05-06 15:43 47.59868 7.52517 867 ft 3 kts 65°
2026-05-06 15:43 47.59883 7.52562 867 ft 5 kts 62°
2026-05-06 15:43 47.59904 7.52621 867 ft 5 kts 62°
2026-05-06 15:43 47.59907 7.52663 867 ft 4 kts 144°
2026-05-06 15:44 47.59875 7.52688 867 ft 5 kts 152°
2026-05-06 15:44 47.59833 7.52717 868 ft 7 kts 155°
2026-05-06 15:44 47.59781 7.52751 869 ft 9 kts 154°
2026-05-06 15:44 47.59721 7.52794 870 ft 10 kts 154°
2026-05-06 15:45 47.59662 7.52836 871 ft 8 kts 149°
2026-05-06 15:45 47.59661 7.52912 871 ft 7 kts 65°
2026-05-06 15:45 47.59684 7.52986 870 ft 8 kts 64°
2026-05-06 15:45 47.59739 7.53027 869 ft 9 kts
2026-05-06 15:46 47.59755 7.53091 867 ft 3 kts 117°
2026-05-06 15:46 47.59744 7.53101 867 ft 2 kts 141°
2026-05-06 15:46 47.59737 7.53127 867 ft 4 kts 90°
2026-05-06 15:46 47.59746 7.53167 866 ft 2 kts 65°
2026-05-06 15:47 47.59752 7.53186 865 ft 1 kts 65°
2026-05-06 15:47 47.59754 7.53193 865 ft 0 kts 65°